Yakima, WA

7:23 PM PST on December 09, 2016 (GMT -0800)
Yakima Air Term-McAllister

Weather History for KYKM - August, 2012

Change the Weather History Date:

Wednesday, August 15, 2012

  Actual Average Record
Temperature  
Mean Temperature 76 °F 70 °F  
Max Temperature 93 °F 87 °F 101 °F (2008)
Min Temperature 58 °F 52 °F 42 °F (2009)
Degree Days  
Heating Degree Days 0 1  
Month to date heating degree days 0 8  
Since 1 June heating degree days 120 127  
Since 1 July heating degree days 8 29  
Cooling Degree Days 11 5  
Month to date cooling degree days 162 98  
Year to date cooling degree days 541 378  
Since 1 June cooling degree days 517 358  
Growing Degree Days 25 (Base 50)    
Moisture  
Dew Point 47 °F    
Average Humidity 41    
Maximum Humidity 64    
Minimum Humidity 18    
Precipitation  
Precipitation 0.00 in 0.01 in 0.52 in (1972)
Month to date precipitation 0.00 0.11  
Year to date precipitation 5.48 4.62  
Snow  
Snow 0.00 in 0.00 in 0.00 in (2002)
Month to date snowfall 0.0 0.0  
Year to date snowfall 21.5 8.6  
Since 1 July snowfall 0.0 0.0  
Snow Depth 0.00 in    
Sea Level Pressure  
Sea Level Pressure 29.91 in    
Wind  
Wind Speed 7 mph (West)    
Max Wind Speed 17 mph    
Max Gust Speed 24 mph    
Visibility 10 miles    
Events      
T = Trace of Precipitation, MM = Missing Value Source: NWS Daily Summary

Daily Weather History Graph

Daily Weather History Graph

Search for Another Location

Airport or City:

Trip Planner

Search our weather history database for the weather conditions in past years. The results will help you decide how hot, cold, wet, or windy it might be!

Date:

Astronomy

Aug. 15, 2012 Rise Set
Actual Time 6:01 AM PDT 8:10 PM PDT
Civil Twilight 5:28 AM PDT 8:43 PM PDT
Nautical Twilight 4:47 AM PDT 9:24 PM PDT
Astronomical Twilight 4:01 AM PDT 10:10 PM PDT
Moon 3:59 AM PDT (8/15) 6:48 PM PDT (8/15)
Length of Visible Light 15h 15m
Length of Day
14h 09m
Waning Crescent, 4% of the Moon is Illuminated
Aug 15
Waning Crescent
Aug 17
New
Aug 24
First Quarter
Aug 31
Full
Sep 8
Last Quarter

Hourly Weather History & Observations

Time (PDT) Temp. Dew Point Humidity Pressure Visibility Wind Dir Wind Speed Gust Speed Precip Events Conditions
12:53 AM 72.0 °F 52.0 °F 49% 29.83 in 10.0 mi WSW 6.9 mph - N/A   Clear
1:53 AM 70.0 °F 52.0 °F 53% 29.85 in 10.0 mi West 5.8 mph - N/A   Clear
2:53 AM 64.9 °F 52.0 °F 63% 29.86 in 10.0 mi West 6.9 mph - N/A   Clear
3:53 AM 66.0 °F 51.1 °F 59% 29.87 in 10.0 mi WSW 11.5 mph - N/A   Clear
4:53 AM 64.9 °F 48.9 °F 56% 29.89 in 10.0 mi West 8.1 mph - N/A   Clear
5:53 AM 61.0 °F 46.9 °F 60% 29.91 in 10.0 mi West 9.2 mph - N/A   Clear
6:53 AM 62.1 °F 46.9 °F 58% 29.93 in 10.0 mi WSW 4.6 mph - N/A   Clear
7:53 AM 69.1 °F 50.0 °F 51% 29.95 in 10.0 mi West 8.1 mph - N/A   Clear
8:53 AM 75.0 °F 53.1 °F 46% 29.96 in 10.0 mi WSW 6.9 mph - N/A   Clear
9:53 AM 84.0 °F 45.0 °F 25% 29.95 in 10.0 mi Variable 3.5 mph - N/A   Clear
10:53 AM 87.1 °F 44.1 °F 22% 29.95 in 10.0 mi NE 12.7 mph - N/A   Clear
11:53 AM 87.1 °F 44.1 °F 22% 29.95 in 10.0 mi NE 8.1 mph 16.1 mph N/A   Clear
12:53 PM 90.0 °F 45.0 °F 21% 29.94 in 10.0 mi North 11.5 mph 17.3 mph N/A   Clear
1:53 PM 93.0 °F 45.0 °F 19% 29.92 in 10.0 mi NE 11.5 mph - N/A   Clear
2:53 PM 91.9 °F 43.0 °F 18% 29.91 in 10.0 mi East 5.8 mph - N/A   Clear
3:53 PM 93.0 °F 44.1 °F 18% 29.89 in 10.0 mi SE 9.2 mph - N/A   Clear
4:53 PM 91.9 °F 43.0 °F 18% 29.88 in 10.0 mi East 6.9 mph - N/A   Clear
5:53 PM 91.0 °F 42.1 °F 18% 29.87 in 10.0 mi East 4.6 mph - N/A   Clear
6:53 PM 89.6 °F 42.8 °F 20% 29.89 in 10.0 mi East 8.1 mph - N/A   Clear
7:53 PM 84.9 °F 44.1 °F 24% 29.88 in 9.0 mi East 6.9 mph - N/A   Clear
8:53 PM 71.1 °F 48.0 °F 44% 29.90 in 10.0 mi Calm Calm - N/A   Clear
9:53 PM 66.9 °F 51.1 °F 57% 29.92 in 9.0 mi West 6.9 mph - N/A   Clear
10:53 PM 64.0 °F 48.9 °F 58% 29.93 in 10.0 mi West 8.1 mph - N/A   Clear
11:53 PM 61.0 °F 48.0 °F 62% 29.95 in 10.0 mi West 8.1 mph - N/A   Clear